ECHOSTAR 11

Last updated on Sat Apr 13 2024 01:02:37 GMT+0100 (British Summer Time)

1 33207U 08035A 24103.57050042 -.00000065 00000+0 00000+0 0 9994 2 33207 0.0634 82.0090 0002532 292.0988 282.5105 1.00271882 43233
UTC large
Height (km)
Speed (km/s)
/
Latitude / Longitude
Inclination (degrees)
Orbital Period (minutes)
Azimuth
Elevation
Range (km)
Doppler Factor

Next 0 passes for location: London (51.5072 / 0.1276)

Sorry there are no passes over London.